Content
SEND FEEDBACK

Daily
Averages
Monthly
Summary
United States of America

SPIRIT FALLS, WISCONSIN


Home > North America > United States > Wisconsin
Elevation: 1460 feet     Latitude: 45 27N     Longitude: 089 59W

WEATHER
 
SELECT A DAY
Number of Records: 245,262;   Date Range: 10/5/04 - 9/18/14
 
SHARE

PRINT THIS DATA

[ ← Previous Day ]
WEATHER ALMANAC - FEBRUARY 1, 2013
[ Next Day → ]
[ °C ]   °F
Weather ElementAverageHighLow
Temperature-4.6 °F1.4 °F (1:15 pm)-14.8 °F (7:55 am)
Dewpoint-13.6 °F-7.6 °F (12:35 am)-18.4 °F (6:55 am)
Humidity66.5 %85 % (1:15 am)47 % (1:15 pm)
Barometer30.06 in30.13 in (8:55 am)29.99 in (12:35 am)
Wind Speed5.8 mph12.7 mph (2:15 am)
Weather ElementAverage
Visibility9.6 mi
Wind DirectionSW (227.2 °)

Weather ElementTotal
Precipitation---
Heating Degree Days71.7 (Base 65)
Averaged from 71 records on February 1, 2013
WEATHER CONDITIONS BREAKOUT
WIND DIRECTION BREAKOUT
WEATHER BY HOUR - FEBRUARY 1, 2013
[ °C ]   °F
Local TimeTemperatureDewpointHumidityBarometerVisibilityWind DirectionWind SpeedGust SpeedPrecipitationEventsConditions
12:35 AM-2.2 °F-7.6 °F78 %29.99 in10.0 miWest (280°)5.8 mphMostly Cloudy
12:55 AM-2.2 °F-7.6 °F78 %30.00 in10.0 miWest (270°)9.2 mphOvercast
1:15 AM-4.0 °F-7.6 °F85 %30.00 in10.0 miWest (270°)6.9 mphScattered Clouds
1:35 AM-4.0 °F-7.6 °F85 %30.02 in10.0 miWest (280°)9.2 mphScattered Clouds
1:55 AM-4.0 °F-9.4 °F78 %30.03 in10.0 miWest (280°)10.4 mphMostly Cloudy
2:15 AM-4.0 °F-9.4 °F78 %30.04 in10.0 miWest (280°)12.7 mphMostly Cloudy
2:35 AM-4.0 °F-9.4 °F78 %30.04 in10.0 miWest (270°)11.5 mphScattered Clouds
2:55 AM-5.8 °F-9.4 °F84 %30.04 in10.0 miWest (270°)10.4 mphClear
3:15 AM-5.8 °F-11.2 °F77 %30.05 in10.0 miWest (270°)9.2 mphClear
3:35 AM-5.8 °F-13.0 °F71 %30.05 in10.0 miWest (270°)8.1 mphClear
3:55 AM-7.6 °F-13.0 °F77 %30.06 in10.0 miWest (280°)9.2 mphClear
4:15 AM-7.6 °F-13.0 °F77 %30.07 in10.0 miWest (270°)8.1 mphClear
4:35 AM-7.6 °F-13.0 °F77 %30.07 in10.0 miWest (270°)8.1 mphClear
4:55 AM-9.4 °F-14.8 °F77 %30.08 in10.0 miWest (270°)6.9 mphClear
5:15 AM-9.4 °F-14.8 °F77 %30.09 in10.0 miWest (260°)6.9 mphClear
5:35 AM-9.4 °F-14.8 °F77 %30.09 in10.0 miWest (270°)8.1 mphClear
5:55 AM-11.2 °F-16.6 °F77 %30.10 in10.0 miWest (270°)6.9 mphClear
6:15 AM-11.2 °F-16.6 °F77 %30.10 in10.0 miWest (260°)4.6 mphClear
6:35 AM-13.0 °F-16.6 °F84 %30.10 in10.0 miWest (270°)4.6 mphClear
6:55 AM-13.0 °F-18.4 °F77 %30.10 in10.0 miWest (270°)4.6 mphClear
7:15 AM-13.0 °F-18.4 °F77 %30.11 in10.0 miWest (260°)3.5 mphClear
7:35 AM-13.0 °F-18.4 °F77 %30.12 in10.0 miWest (270°)5.8 mphClear
7:55 AM-14.8 °F-18.4 °F84 %30.12 in10.0 miWest (270°)4.6 mphClear
8:15 AM-13.0 °F-18.4 °F77 %30.12 in10.0 miWest (270°)8.1 mphClear
8:35 AM-13.0 °F-18.4 °F77 %30.12 in10.0 miWest (280°)10.4 mphClear
8:55 AM-13.0 °F-18.4 °F77 %30.13 in10.0 miWest (260°)10.4 mphClear
9:15 AM-11.2 °F-18.4 °F70 %30.13 in10.0 miWest (280°)11.5 mphClear
9:35 AM-11.2 °F-18.4 °F70 %30.12 in10.0 miWest (260°)10.4 mphClear
9:55 AM-9.4 °F-18.4 °F65 %30.12 in10.0 miWest (280°)8.1 mphClear
10:15 AM-9.4 °F-18.4 °F65 %30.12 in10.0 miWest (280°)5.8 mphClear
10:35 AM-7.6 °F-16.6 °F65 %30.12 in10.0 miWest (280°)5.8 mphClear
10:55 AM-5.8 °F-16.6 °F60 %30.11 in10.0 miWSW (250°)3.5 mphClear
11:15 AM-5.8 °F-16.6 °F60 %30.11 in10.0 miWest (260°)5.8 mphClear
11:35 AM-4.0 °F-14.8 °F60 %30.10 in10.0 miWest (260°)8.1 mphClear
11:55 AM-4.0 °F-14.8 °F60 %30.09 in10.0 miCalmClear
12:15 PM-2.2 °F-14.8 °F55 %30.08 in10.0 miWNW (300°)4.6 mphClear
12:35 PM-0.4 °F-14.8 °F51 %30.08 in10.0 miWNW (290°)5.8 mphClear
12:55 PM-0.4 °F-14.8 °F51 %30.07 in10.0 miSW (220°)5.8 mphClear
1:15 PM1.4 °F-14.8 °F47 %30.06 in10.0 miWNW (290°)5.8 mphClear
1:35 PM1.4 °F-14.8 °F47 %30.06 in10.0 miWSW (250°)4.6 mphClear
1:55 PM1.4 °F-13.0 °F51 %30.05 in10.0 miSW (220°)5.8 mphClear
2:15 PM1.4 °F-13.0 °F51 %30.04 in10.0 miSW (230°)6.9 mphClear
2:35 PM1.4 °F-14.8 °F47 %30.04 in10.0 miSW (230°)5.8 mphClear
2:55 PM1.4 °F-14.8 °F47 %30.04 in10.0 miWest (270°)10.4 mphClear
3:15 PM1.4 °F-14.8 °F47 %30.04 in10.0 miWest (270°)10.4 mphClear
3:35 PM1.4 °F-14.8 °F47 %30.04 in10.0 miWest (270°)3.5 mphClear
3:55 PM1.4 °F-14.8 °F47 %30.03 in10.0 miWest (270°)6.9 mphClear
4:15 PM-0.4 °F-13.0 °F55 %30.04 in10.0 miSW (230°)5.8 mphClear
4:35 PM-0.4 °F-13.0 °F55 %30.03 in10.0 miSW (230°)5.8 mphMostly Cloudy
4:55 PM-0.4 °F-13.0 °F55 %30.03 in10.0 miSouth (190°)3.5 mphMostly Cloudy
5:15 PM-2.2 °F-13.0 °F60 %30.04 in10.0 miSSW (210°)3.5 mphMostly Cloudy
5:35 PM-2.2 °F-13.0 °F60 %30.04 in10.0 miSW (220°)5.8 mphOvercast
5:55 PM-2.2 °F-13.0 °F60 %30.04 in10.0 miSSW (200°)3.5 mphOvercast
6:15 PM-2.2 °F-13.0 °F60 %30.03 in10.0 miCalmOvercast
6:35 PM-2.2 °F-13.0 °F60 %30.04 in10.0 miWest (260°)5.8 mphOvercast
6:55 PM-2.2 °F-13.0 °F60 %30.04 in10.0 miWest (260°)5.8 mphOvercast
7:15 PM-2.2 °F-14.8 °F55 %30.04 in10.0 miWSW (240°)4.6 mphOvercast
7:35 PM-2.2 °F-13.0 °F60 %30.04 in10.0 miWest (260°)8.1 mphOvercast
7:55 PM-2.2 °F-13.0 °F60 %30.04 in10.0 miWest (260°)4.6 mphOvercast
8:15 PM-2.2 °F-13.0 °F60 %30.04 in10.0 miWSW (240°)3.5 mphOvercast
8:35 PM-2.2 °F-13.0 °F60 %30.03 in10.0 miCalmOvercast
8:55 PM-2.2 °F-13.0 °F60 %30.03 in10.0 miCalmOvercast
9:15 PM-2.2 °F-13.0 °F60 %30.03 in10.0 miWest (260°)3.5 mphOvercast
9:35 PM-2.2 °F-11.2 °F66 %30.03 in10.0 miWSW (240°)3.5 mphOvercast
9:55 PM-2.2 °F-11.2 °F66 %30.03 in10.0 miWest (260°)3.5 mphOvercast
10:15 PM-2.2 °F-9.4 °F71 %30.03 in7.0 miCalmOvercast
10:35 PM-2.2 °F-9.4 °F71 %30.02 in5.0 miCalmHaze
10:55 PM-2.2 °F-9.4 °F71 %30.02 in4.0 miCalmSnowLight Snow
11:15 PM-2.2 °F-7.6 °F78 %30.02 in4.0 miWest (270°)3.5 mphSnowLight Snow
11:35 PM-2.2 °F-7.6 °F78 %30.02 in7.0 miCalmOvercast
11:55 PM-2.2 °F-7.6 °F78 %30.02 in4.0 miCalmSnowLight Snow
Hourly data recorded from KTKV, located miles away from Spirit Falls, Wisconsin







STORIES FROM OUR PARTNERS